When you browse on this site, cookies collect data to enhance your experience and personalize the content and advertising you see.
Visit our Privacy Policy to learn more. By continuing to use the site, you agree to this use of cookies and data.

Hourly Weather Francistown

Today, 22 September, Tuesday

Time Temperature Precipitation Wind Pressure Humidity
00:00 +24°C° 0 mm 8 mps 679 mmHg 35%
01:00 +21°C° 0 mm 9 mps 679 mmHg 54%
02:00 +17°C° 0 mm 9 mps 678 mmHg 72%
03:00 +17°C° 0 mm 10 mps 679 mmHg 73%
04:00 +16°C° 0 mm 10 mps 679 mmHg 74%
05:00 +16°C° 0 mm 10 mps 680 mmHg 74%
06:00 +17°C° 0 mm 10 mps 680 mmHg 71%
07:00 +17°C° 0 mm 9 mps 681 mmHg 68%
08:00 +18°C° 0 mm 9 mps 682 mmHg 64%
09:00 +19°C° 0 mm 10 mps 682 mmHg 60%
10:00 +21°C° 0 mm 10 mps 682 mmHg 55%
11:00 +23°C° 0 mm 10 mps 683 mmHg 51%
12:00 +24°C° 0 mm 9 mps 682 mmHg 48%
13:00 +26°C° 0 mm 9 mps 682 mmHg 45%
14:00 +27°C° 0 mm 9 mps 681 mmHg 42%
15:00 +26°C° 0 mm 9 mps 681 mmHg 42%
16:00 +26°C° 0 mm 9 mps 681 mmHg 43%
17:00 +24°C° 0 mm 8 mps 681 mmHg 43%
18:00 +22°C° 0 mm 8 mps 681 mmHg 49%
19:00 +21°C° 0 mm 8 mps 681 mmHg 54%
20:00 +18°C° 0 mm 7 mps 682 mmHg 60%
21:00 +17°C° 0 mm 7 mps 682 mmHg 61%
22:00 +17°C° 0 mm 7 mps 682 mmHg 63%
23:00 +16°C° 0 mm 7 mps 682 mmHg 65%

Tomorrow, 23 September, Wednesday

Time Temperature Precipitation Wind Pressure Humidity
00:00 +16°C° 0 mm 7 mps 682 mmHg 67%
01:00 +15°C° 0 mm 7 mps 681 mmHg 69%
02:00 +15°C° 0 mm 6 mps 681 mmHg 70%
03:00 +14°C° 0 mm 6 mps 681 mmHg 74%
04:00 +13°C° 0 mm 6 mps 680 mmHg 78%
05:00 +13°C° 0 mm 6 mps 680 mmHg 82%
06:00 +14°C° 0 mm 6 mps 681 mmHg 78%
07:00 +14°C° 0 mm 7 mps 681 mmHg 75%
08:00 +15°C° 0 mm 7 mps 681 mmHg 72%
09:00 +19°C° 0 mm 6 mps 681 mmHg 62%
10:00 +21°C° 0 mm 6 mps 681 mmHg 52%
11:00 +24°C° 0 mm 6 mps 681 mmHg 42%
12:00 +27°C° 0 mm 6 mps 681 mmHg 35%
13:00 +30°C° 0 mm 6 mps 680 mmHg 28%
14:00 +33°C° 0 mm 6 mps 679 mmHg 21%
15:00 +33°C° 0 mm 6 mps 679 mmHg 21%
16:00 +33°C° 0 mm 6 mps 679 mmHg 21%
17:00 +32°C° 0 mm 6 mps 679 mmHg 21%
18:00 +29°C° 0 mm 6 mps 679 mmHg 26%
19:00 +26°C° 0 mm 5 mps 679 mmHg 31%
20:00 +23°C° 0 mm 5 mps 679 mmHg 36%
21:00 +22°C° 0 mm 5 mps 679 mmHg 38%
22:00 +21°C° 0 mm 5 mps 679 mmHg 40%
23:00 +20°C° 0 mm 5 mps 679 mmHg 43%

Day after tomorrow, 24 September, Thursday

Time Temperature Precipitation Wind Pressure Humidity
00:00 +20°C° 0 mm 4 mps 679 mmHg 45%
01:00 +19°C° 0 mm 4 mps 678 mmHg 48%
02:00 +18°C° 0 mm 4 mps 678 mmHg 51%
03:00 +17°C° 0 mm 3 mps 678 mmHg 53%
04:00 +16°C° 0 mm 2 mps 678 mmHg 56%
05:00 +16°C° 0 mm 2 mps 678 mmHg 59%
06:00 +18°C° 0 mm 2 mps 678 mmHg 52%
07:00 +20°C° 0 mm 2 mps 679 mmHg 45%
08:00 +22°C° 0 mm 3 mps 680 mmHg 39%
09:00 +26°C° 0 mm 3 mps 680 mmHg 32%
10:00 +29°C° 0 mm 4 mps 680 mmHg 26%
11:00 +33°C° 0 mm 4 mps 680 mmHg 20%
12:00 +34°C° 0 mm 4 mps 680 mmHg 18%
13:00 +35°C° 0 mm 4 mps 679 mmHg 16%
14:00 +36°C° 0 mm 4 mps 678 mmHg 14%
15:00 +36°C° 0 mm 4 mps 677 mmHg 14%
16:00 +35°C° 0 mm 4 mps 677 mmHg 13%
17:00 +35°C° 0 mm 4 mps 677 mmHg 13%
18:00 +32°C° 0 mm 4 mps 677 mmHg 17%
19:00 +28°C° 0 mm 4 mps 677 mmHg 20%
20:00 +26°C° 0 mm 4 mps 677 mmHg 24%
21:00 +25°C° 0 mm 4 mps 677 mmHg 25%
22:00 +23°C° 0 mm 4 mps 677 mmHg 26%
23:00 +22°C° 0 mm 4 mps 677 mmHg 27%

25 September, Friday

Time Temperature Precipitation Wind Pressure Humidity
00:00 +22°C° 0 mm 4 mps 676 mmHg 30%
01:00 +21°C° 0 mm 4 mps 676 mmHg 32%
02:00 +21°C° 0 mm 4 mps 676 mmHg 34%
03:00 +21°C° 0 mm 4 mps 676 mmHg 34%
04:00 +20°C° 0 mm 4 mps 676 mmHg 34%
05:00 +20°C° 0 mm 3 mps 676 mmHg 34%
06:00 +22°C° 0 mm 3 mps 676 mmHg 30%
07:00 +26°C° 0 mm 3 mps 677 mmHg 25%
08:00 +28°C° 0 mm 2 mps 678 mmHg 21%
09:00 +30°C° 0 mm 3 mps 678 mmHg 18%
10:00 +34°C° 0 mm 3 mps 678 mmHg 15%
11:00 +37°C° 0 mm 3 mps 678 mmHg 12%
12:00 +37°C° 0 mm 4 mps 677 mmHg 10%
13:00 +38°C° 0 mm 4 mps 676 mmHg 9%
14:00 +40°C° 0 mm 5 mps 676 mmHg 8%
15:00 +40°C° 0 mm 5 mps 675 mmHg 8%
16:00 +39°C° 0 mm 5 mps 675 mmHg 8%
17:00 +37°C° 0 mm 4 mps 674 mmHg 9%
18:00 +34°C° 0 mm 4 mps 674 mmHg 11%
19:00 +31°C° 0 mm 3 mps 674 mmHg 14%
20:00 +28°C° 0 mm 3 mps 674 mmHg 16%
21:00 +27°C° 0 mm 3 mps 674 mmHg 17%
22:00 +26°C° 0 mm 4 mps 674 mmHg 18%
23:00 +26°C° 0 mm 4 mps 674 mmHg 18%

26 September, Saturday

Time Temperature Precipitation Wind Pressure Humidity
00:00 +25°C° 0 mm 4 mps 674 mmHg 18%
01:00 +25°C° 0 mm 4 mps 673 mmHg 18%
02:00 +24°C° 0 mm 3 mps 673 mmHg 17%
03:00 +24°C° 0 mm 3 mps 673 mmHg 18%
04:00 +22°C° 0 mm 3 mps 673 mmHg 18%
05:00 +22°C° 0 mm 4 mps 672 mmHg 19%
06:00 +25°C° 0 mm 4 mps 673 mmHg 16%
07:00 +28°C° 0 mm 5 mps 674 mmHg 13%
08:00 +32°C° 0 mm 5 mps 675 mmHg 10%
09:00 +35°C° 0 mm 4 mps 675 mmHg 10%
10:00 +37°C° 0 mm 4 mps 675 mmHg 9%
11:00 +39°C° 0 mm 3 mps 675 mmHg 8%
12:00 +40°C° 0 mm 2 mps 674 mmHg 8%
13:00 +41°C° 0 mm 2 mps 674 mmHg 7%
14:00 +42°C° 0 mm 1 mps 673 mmHg 7%
15:00 +42°C° 0 mm 2 mps 673 mmHg 7%
16:00 +42°C° 0 mm 3 mps 672 mmHg 7%
17:00 +41°C° 0 mm 4 mps 672 mmHg 8%
18:00 +37°C° 0 mm 4 mps 672 mmHg 10%
19:00 +34°C° 0 mm 3 mps 672 mmHg 12%
20:00 +30°C° 0 mm 2 mps 672 mmHg 14%
21:00 +29°C° 0 mm 3 mps 672 mmHg 15%
22:00 +28°C° 0 mm 3 mps 672 mmHg 16%
23:00 +26°C° 0 mm 3 mps 672 mmHg 16%

27 September, Sunday

Time Temperature Precipitation Wind Pressure Humidity
00:00 +26°C° 0 mm 3 mps 673 mmHg 16%
01:00 +25°C° 0 mm 3 mps 673 mmHg 15%
02:00 +23°C° 0 mm 4 mps 673 mmHg 14%
03:00 +22°C° 0 mm 4 mps 673 mmHg 15%
04:00 +21°C° 0 mm 4 mps 673 mmHg 16%
05:00 +21°C° 0 mm 5 mps 673 mmHg 18%
06:00 +21°C° 0 mm 5 mps 674 mmHg 33%
07:00 +20°C° 0 mm 6 mps 674 mmHg 48%
08:00 +20°C° 0 mm 6 mps 675 mmHg 64%
09:00 +23°C° 0 mm 6 mps 675 mmHg 54%
10:00 +27°C° 0 mm 6 mps 675 mmHg 45%
11:00 +29°C° 0 mm 6 mps 675 mmHg 35%
12:00 +33°C° 0 mm 6 mps 675 mmHg 29%
13:00 +35°C° 0 mm 5 mps 674 mmHg 22%
14:00 +37°C° 0 mm 4 mps 674 mmHg 15%
15:00 +37°C° 0 mm 5 mps 674 mmHg 16%
16:00 +36°C° 0 mm 6 mps 674 mmHg 17%
17:00 +36°C° 0 mm 6 mps 673 mmHg 18%
18:00 +33°C° 0 mm 6 mps 673 mmHg 27%
19:00 +29°C° 0 mm 6 mps 674 mmHg 35%
20:00 +26°C° 0 mm 6 mps 674 mmHg 43%
21:00 +23°C° 0 mm 6 mps 674 mmHg 49%
22:00 +22°C° 0 mm 6 mps 674 mmHg 55%
23:00 +21°C° 0 mm 5 mps 675 mmHg 61%
Show more